This is the latest recevied weather packets stored in our database for station/object K9NZF-1. If no packets are shown the sender has not sent any weather packets the latest 1 day(s).
| Time | Temp. | Humidity | Pressure | Rain* | Wind** | Luminosity | Snow |
|---|---|---|---|---|---|---|---|
| 1777982330 | 12.78° C | 91% | 1006.5 hPa | 0 mm | 0.89 m/s, 353° | 84 W/m² | - |
| 1777982213 | 12.78° C | 91% | 1006.4 hPa | 0 mm | 0.89 m/s, 355° | 91 W/m² | - |
| 1777982150 | 12.78° C | 91% | 1006.4 hPa | 0 mm | 0.89 m/s, 307° | 109 W/m² | - |
| 1777982090 | 12.78° C | 91% | 1006.4 hPa | 0 mm | 0.89 m/s, 306° | 120 W/m² | - |
| 1777982030 | 12.78° C | 91% | 1006.3 hPa | 0 mm | 0.89 m/s, 355° | 128 W/m² | - |
| 1777981970 | 12.22° C | 91% | 1006.4 hPa | 0 mm | 0.89 m/s, 12° | 130 W/m² | - |
| 1777981912 | 12.22° C | 91% | 1006.4 hPa | 0 mm | 0.89 m/s, 348° | 127 W/m² | - |
| 1777981850 | 12.22° C | 91% | 1006.4 hPa | 0 mm | 0.89 m/s, 350° | 123 W/m² | - |
| 1777981791 | 12.22° C | 91% | 1006.5 hPa | 0 mm | 0.89 m/s, 312° | 116 W/m² | - |
| 1777981731 | 12.22° C | 91% | 1006.5 hPa | 0 mm | 0.89 m/s, 12° | 102 W/m² | - |
| 1777981671 | 12.22° C | 91% | 1006.5 hPa | 0 mm | 0.89 m/s, 39° | 97 W/m² | - |
| 1777981610 | 12.22° C | 91% | 1006.5 hPa | 0 mm | 0.89 m/s, 45° | 91 W/m² | - |
| 1777981550 | 12.22° C | 91% | 1006.5 hPa | 0 mm | 0.89 m/s, 6° | 88 W/m² | - |
| 1777981490 | 12.22° C | 91% | 1006.5 hPa | 0 mm | 0.89 m/s, 353° | 84 W/m² | - |
| 1777981426 | 12.22° C | 91% | 1006.5 hPa | 0 mm | 0.45 m/s, 41° | 76 W/m² | - |
| 1777981365 | 12.22° C | 91% | 1006.5 hPa | 0 mm | 0.45 m/s, 35° | 70 W/m² | - |
| 1777981303 | 12.22° C | 91% | 1006.5 hPa | 0 mm | 0.45 m/s, 325° | 67 W/m² | - |
| 1777981243 | 12.22° C | 91% | 1006.6 hPa | 0 mm | 0.45 m/s, 24° | 65 W/m² | - |
| 1777981180 | 12.22° C | 91% | 1006.5 hPa | 0 mm | 0.45 m/s, 68° | 60 W/m² | - |
| 1777981122 | 12.22° C | 91% | 1006.5 hPa | 0 mm | 0.45 m/s, 4° | 58 W/m² | - |
| 1777981059 | 12.22° C | 91% | 1006.6 hPa | 0 mm | 0.45 m/s, 41° | 54 W/m² | - |
| 1777980998 | 12.22° C | 91% | 1006.6 hPa | 0 mm | 0.45 m/s, 39° | 51 W/m² | - |
| 1777980934 | 12.22° C | 91% | 1006.6 hPa | 0 mm | 0.45 m/s, 51° | 49 W/m² | - |
| 1777980874 | 12.22° C | 91% | 1006.6 hPa | 0 mm | 0.45 m/s, 53° | 47 W/m² | - |
| 1777980816 | 12.22° C | 91% | 1006.6 hPa | 0 mm | 0.45 m/s, 6° | 42 W/m² | - |
* Rain latest hour (hover to see other rain measurements)
** Current wind speed in m/s (hover to see current wind gust speed)